Content
SEND FEEDBACK

Daily
Averages
Monthly
Summary
United States of America

GLEN CANYON CITY, UTAH


Home > North America > United States > Utah
Elevation: 4133 feet     Latitude: 37 05N     Longitude: 111 40W

WEATHER
 
SELECT A DAY
Number of Records: 197,308;   Date Range: 1/1/95 - 10/29/14
 
SHARE

PRINT THIS DATA

[ ← Previous Day ]
WEATHER ALMANAC - FEBRUARY 17, 2013
[ Next Day → ]
[ °C ]   °F
Weather ElementAverageHighLow
Temperature46 °F61 °F (3:53 pm)34 °F (5:53 am)
Dewpoint15.8 °F19.9 °F (1:53 am)3.2 °F (4:53 pm)
Humidity34 %56 % (6:53 am)10 % (4:53 pm)
Barometer29.85 in30.04 in (1:53 am)29.68 in (3:53 pm)
Wind Speed5.2 mph13.8 mph (7:53 pm)
Wind Gust28.8 mph (4:53 pm)
Weather ElementAverage
Visibility9.9 mi
Wind DirectionS (174.5 °)

Weather ElementTotal
Precipitation---
Heating Degree Days17.5 (Base 65)
Averaged from 22 records on February 17, 2013
WEATHER CONDITIONS BREAKOUT
WIND DIRECTION BREAKOUT
WEATHER BY HOUR - FEBRUARY 17, 2013
[ °C ]   °F
Local TimeTemperatureDewpointHumidityBarometerVisibilityWind DirectionWind SpeedGust SpeedPrecipitationEventsConditions
1:53 AM37.0 °F19.9 °F50 %30.04 in10.0 miCalmClear
2:53 AM36.0 °F19.0 °F50 %30.01 in10.0 miCalmClear
3:53 AM36.0 °F19.0 °F50 %29.98 in10.0 miCalmClear
4:53 AM36.0 °F19.0 °F50 %29.95 in10.0 miCalmClear
5:53 AM34.0 °F19.0 °F54 %29.95 in9.0 miCalmClear
6:53 AM34.0 °F19.9 °F56 %29.94 in8.0 miCalmClear
7:53 AM36.0 °F19.9 °F52 %29.94 in10.0 miWNW (290°)4.6 mphClear
8:53 AM37.9 °F19.0 °F47 %29.92 in10.0 miNW (310°)3.5 mphClear
9:53 AM41.0 °F19.9 °F43 %29.90 in10.0 miWNW (290°)3.5 mphClear
10:53 AM44.1 °F19.0 °F37 %29.88 in10.0 miWest (280°)3.5 mphClear
11:53 AM48.0 °F17.1 °F29 %29.84 in10.0 miNW (310°)4.6 mphClear
12:53 PM52.0 °F18.0 °F26 %29.78 in10.0 miVariable4.6 mphClear
1:53 PM53.1 °F18.0 °F25 %29.75 in10.0 miEast (80°)3.5 mphClear
2:53 PM55.9 °F17.1 °F22 %29.72 in10.0 miSE (130°)3.5 mphClear
3:53 PM61.0 °F10.9 °F14 %29.68 in10.0 miWSW (250°)8.1 mphClear
4:53 PM60.8 °F3.2 °F10 %29.74 in10.0 miWest (260°)11.5 mph28.8 mphClear
5:53 PM57.9 °F6.1 °F13 %29.69 in10.0 miWSW (250°)10.4 mph28.8 mphClear
6:53 PM55.9 °F6.1 °F14 %29.72 in10.0 miWSW (250°)12.7 mph24.2 mphClear
7:53 PM54.0 °F7.0 °F15 %29.74 in10.0 miWest (270°)13.8 mph25.3 mphClear
8:53 PM50.0 °F15.1 °F25 %29.82 in10.0 miNW (310°)10.4 mphClear
10:53 PM46.0 °F18.0 °F33 %29.88 in10.0 miWest (270°)6.9 mphClear
11:53 PM45.0 °F18.0 °F34 %29.89 in10.0 miWNW (290°)9.2 mph18.4 mphClear
Hourly data recorded from KPGA, located miles away from Glen Canyon City, Utah







STORIES FROM OUR PARTNERS